Hourly Data Report for May 26, 2012

All times are specified in Local Standard Time (LST). Add 1 hour to adjust for Daylight Saving Time where and when it is observed.

SAULT STE MARIE A
ONTARIO

46°29'06.000" N
84°30'35.000" W
192.00 m
6057591
71260
YAM

Download Data

Hourly Data (May 2012)
Hourly Data Report for May 26, 2012
Temp Definition
°C
Dew Point Temp Definition
°C
Rel Hum Definition
%
Wind Dir Definition
10's deg

Wind Spd Definition
km/h
Visibility Definition
km
Stn Press Definition
kPa
Hmdx Definition


Wind Chill Definition


Weather Definition


TIME
00:00 Legend Double Dagger 4.0 4.0 100   0 10.0 99.75     LegendNANA
01:00 Legend Double Dagger 3.6 3.6 100 7 5 10.0 99.82     Clear
02:00 Legend Double Dagger 3.0 3.0 100   0 10.0 99.87     LegendNANA
03:00 Legend Double Dagger 1.9 1.9 100   0 10.0 99.91     LegendNANA
04:00 Legend Double Dagger 1.9 1.9 100   0 10.0 99.94     Fog
05:00 Legend Double Dagger 1.5 1.5 100   0 10.0 99.96     Fog
06:00 Legend Double Dagger 4.8 4.8 100   0 10.0 100.02     LegendNANA
07:00 Legend Double Dagger 9.6 7.9 89   0 10.0 100.06     Mainly Clear
08:00 Legend Double Dagger 11.3 6.9 74 24 6 10.0 100.15     LegendNANA
09:00 Legend Double Dagger 14.1 7.5 64 32 8 10.0 100.15     LegendNANA
10:00 Legend Double Dagger 16.7 9.9 64 25 5 10.0 100.18     Mostly Cloudy
11:00 Legend Double Dagger 18.5 9.4 55 25 6 10.0 100.17     LegendNANA
12:00 Legend Double Dagger 19.5 9.2 51   0 10.0 100.14     LegendNANA
13:00 Legend Double Dagger 21.2 7.6 41 22 9 10.0 100.05     Mostly Cloudy
14:00 Legend Double Dagger 22.0 6.8 37 26 13 10.0 100.04     LegendNANA
15:00 Legend Double Dagger 22.4 7.6 38 30 14 10.0 100.03     LegendNANA
16:00 Legend Double Dagger 23.1 8.6 39 29 16 10.0 100.03     Mostly Cloudy
17:00 Legend Double Dagger 22.4 7.9 39 4 6 10.0 99.96     LegendNANA
18:00 Legend Double Dagger 20.5 9.9 50 18 6 10.0 99.91     LegendNANA
19:00 Legend Double Dagger 17.2 9.2 59 30 8 10.0 99.86     Mostly Cloudy
20:00 Legend Double Dagger 16.6 11.0 69   0 10.0 99.97     LegendNANA
21:00 Legend Double Dagger 13.7 10.4 80 24 7 10.0 99.91     LegendNANA
22:00 Legend Double Dagger 13.5 10.3 81   0 10.0 99.96     Cloudy
23:00 Legend Double Dagger 12.5 10.6 88 7 6 10.0 99.88     LegendNANA

Notes on Data Quality.

Legend

  • E = Estimated
  • M = Missing
  • NA = Not Available
  • ‡ = Partner data that is not subject to review by the National Climate Archives
Date modified: